ATLAS AGENA D R/B, 4511

Orbit data source: Space-Track

ATLAS AGENA D R/B, 4511 is space debris in GEO originally from a launch on Fri, 19 Jun 1970 UTC launched from the Air Force Eastern Test Range (AFETR). Debris objects in space refer to the collection of defunct objects orbiting the Earth. Examples of debris include non-operational satellites, rocket bodies, and fragments generated from explosions, collisions, or faulty payload assembly.

Not visible in the next 10 days
Identifier
4511, 1970-046B
Orbit
GEO
Last TLE update
17 hours ago
Origin
Manufacturer
LMSC
Mission
Spacecraft
Bus & Motor
AGENA D, Unknown motor
Mass
600 kg wet, 600 kg dry
Launch date (UTC)
1970-06-19 (55 years ago)
Launch vehicle
Unknown
Launch site
Air Force Eastern Test Range (AFETR)
Object type
Payload
Rocket body
Debris
Shape & HBR
Cyl, 6.3 m
Radar Cross Section
8.306 m²

Expand to show TLE details & history

TLE from 17 hours ago
0 ATLAS AGENA D R/B
1 04511U 70046B   25186.20960038  .00000044  00000-0  00000-0 0  9996
2 04511   0.8015  90.6724 0030753 296.6638 332.8215  1.00403252 22075
Epoch: 2025-07-05T05:01Z
TLE epoch observation values (Epoch: 2025-07-05T05:01:49.472Z)
Latitude
-0.807°
Longitude
1.09298°
Altitude
35,634.753 km
Speed
3.084 km/s
True Right ascension
00h 00m 00s
True Declination
0° 48' 22"
Sunlit
Object was in daylight at epoch
Visualization orbit readout
Latitude
0.27495°
Longitude
-109.62619°
Altitude
35,845.312 km
Speed
3.069 km/s
Apparent Right ascension
17h 01m 42s
Apparent Declination
-5° 02' 24"
Sunlit
Object is in daylight
Visualization observer readout
Local Sidereal Time
09:31:15
Azimuth
79.02° E
Elevation
-20.497°
Doppler factor
1
Orbital elements
Apogee altitude
35,880.41 km
Perigee altitude
35,621.292 km
Semi-major axis
42,128.988 km
Eccentricity
0.00308
Inclination
0.8015°
RAAN
90.6724°
Arg. of periapsis
296.6638°
True anomaly
Unknown
Mean anomaly
332.8215°
Eccentric anomaly
Unknown
Mean motion
0.251 °/min
Orbital period
1,434.27 mins
BSTAR
0
Loading historical data...
4511 neighbors
Loading maneuver chart data...
Loading SW <> Apogee altitude chart data...
Loading historical data...
Loading historical data...
Loading historical data...
Loading historical data...
Loading historical data...
Loading historical data...
Loading historical data...
Other satellites on launch #46 in the year 1970 (1970-06-19 UTC)

ATLAS AGENA D R/B Visibility

Observer location: undefined°, undefined°

ATLAS AGENA D R/B is likely not visible in the next few days
Span
Click to sort rows by Start time (UTC) header in descending order
Start Az.
Max El. time (UTC)
Max El. Az.
Max El.
End time (UTC)
End Az.
|